Back to catalog

STARLINK-32015

AliveCommunicationsVLEO
NORAD 60111·PAYLOAD·🇺🇸 United States

Launched Jun 23, 2024 from Cape Canaveral Space Force Station

Loading…

Next Passes (next 24 hours)

TLE

FreshSource: CelesTrak SupGP

Epoch: Sep 14, 2026, 21:29 UTC

1 60111C 24117W   26257.89562500  .00041405  00000+0  12233-2 0  2574
2 60111  53.1563 235.7121 0001393 100.9960 161.4448 15.34370783    16

Track STARLINK-32015 in real time with AllMySat

Download on the App Store